FW0132 Weather Reports


time (UTC)temp
C
wind
direction
speed
KPH
gust
KPH
rain 1hr
cm
rain 24hr
cm
rain mn
cm
humidity
%
barometer
mb
20260507143040 11 286 0.0 0.0 0.00 0.00 0.00 92 1015.0
20260507141540 10 286 0.0 0.0 0.00 0.00 0.00 91 1015.0
20260507140035 10 286 0.0 0.0 0.00 0.00 0.00 93 1014.9
20260507134534 9 286 0.0 0.0 0.00 0.00 0.00 92 1014.9
20260507133036 9 285 0.0 0.0 0.00 0.00 0.00 91 1014.8
20260507131532 8 285 0.0 0.0 0.00 0.00 0.00 91 1014.7
20260507130030 8 286 0.0 0.0 0.00 0.00 0.00 90 1014.7
20260507124528 9 285 0.0 0.0 0.00 0.00 0.00 90 1014.4
20260507123028 9 286 0.0 0.0 0.00 0.00 0.00 90 1014.3
20260507121526 9 285 0.0 0.0 0.00 0.00 0.00 90 1014.3
20260507120026 9 284 0.0 0.0 0.00 0.00 0.00 91 1014.3
20260507114524 9 284 0.0 0.0 0.00 0.00 0.00 89 1014.3
20260507113023 10 284 0.0 0.0 0.00 0.00 0.00 89 1014.4
20260507111534 10 284 0.0 0.0 0.00 0.00 0.00 89 1014.5
20260507110020 10 284 0.0 0.0 0.00 0.00 0.00 90 1014.5
20260507104520 10 284 0.0 0.0 0.00 0.00 0.00 89 1014.5
20260507103015 10 284 0.0 0.0 0.00 0.00 0.00 88 1014.6
20260507101514 11 284 0.0 0.0 0.00 0.00 0.00 88 1014.8
20260507100017 11 284 0.0 0.0 0.00 0.00 0.00 88 1014.9
20260507094511 11 284 0.0 0.0 0.00 0.00 0.00 88 1014.8
20260507093009 11 284 0.0 0.0 0.00 0.00 0.00 86 1015.1
20260507091506 11 284 0.0 0.0 0.00 0.00 0.00 86 1015.1
20260507090007 11 284 0.0 0.0 0.00 0.00 0.00 86 1015.2
20260507084502 11 284 0.0 0.0 0.00 0.00 0.00 88 1015.3
20260507083100 11 284 0.0 0.0 0.00 0.00 0.00 86 1015.4
20260507081559 12 284 0.0 0.0 0.00 0.00 0.00 85 1015.6
20260507080059 12 284 0.0 0.0 0.00 0.00 0.00 85 1015.6
20260507074555 12 284 0.0 0.0 0.00 0.00 0.00 84 1015.7
20260507073100 12 284 0.0 0.0 0.00 0.00 0.00 83 1015.8
20260507071552 12 284 0.0 0.0 0.00 0.00 0.00 82 1015.9
20260507070055 12 284 0.0 1.6 0.00 0.00 0.00 83 1015.8
20260507064548 13 284 0.0 0.0 0.00 0.00 0.00 81 1015.8
20260507063050 13 284 0.0 0.0 0.00 0.00 0.00 80 1015.9
20260507061546 13 284 0.0 0.0 0.00 0.00 0.00 80 1015.7
20260507060057 13 284 0.0 0.0 0.00 0.00 0.00 78 1015.8
20260507054549 14 284 0.0 0.0 0.00 0.00 0.00 78 1015.8
20260507053053 14 284 0.0 0.0 0.00 0.00 0.00 77 1016.0
20260507051545 15 284 0.0 0.0 0.00 0.00 0.00 76 1015.9
20260507050044 15 284 0.0 0.0 0.00 0.00 0.00 74 1015.8
20260507044555 16 284 0.0 3.2 0.00 0.00 0.00 77 1015.8
20260507043044 16 284 0.0 3.2 0.00 0.00 0.00 76 1015.7
20260507041543 17 284 0.0 4.8 0.00 0.00 0.00 75 1015.7
20260507040043 17 284 0.0 3.2 0.00 0.00 0.00 74 1015.4
20260507034544 17 284 0.0 4.8 0.00 0.00 0.00 72 1015.4
20260507033043 17 290 0.0 8.0 0.00 0.00 0.00 70 1015.2
20260507031542 18 288 1.6 6.4 0.00 0.00 0.00 68 1015.0
20260507030041 18 288 1.6 8.0 0.00 0.00 0.00 64 1014.9
20260507024544 18 188 1.6 6.4 0.00 0.00 0.00 59 1014.8
20260507023041 19 259 4.8 11.3 0.00 0.00 0.00 56 1014.7
20260507021540 20 197 4.8 11.3 0.00 0.00 0.00 54 1014.6
20260507020047 21 149 1.6 9.7 0.00 0.00 0.00 52 1014.4
20260507014539 21 245 4.8 11.3 0.00 0.00 0.00 53 1014.3
20260507013051 21 199 6.4 16.1 0.00 0.00 0.00 53 1014.2
20260507011542 21 194 4.8 14.5 0.00 0.00 0.00 54 1014.2
20260507010043 22 261 8.0 19.3 0.00 0.00 0.00 55 1014.1
20260507004538 22 215 6.4 16.1 0.00 0.00 0.00 54 1013.9
20260507003037 22 255 8.0 16.1 0.00 0.00 0.00 54 1013.9
20260507001540 22 203 9.7 17.7 0.00 0.00 0.00 54 1013.7
20260507000037 23 237 6.4 20.9 0.00 0.00 0.00 54 1013.4
20260506234536 23 248 9.7 17.7 0.00 0.00 0.00 53 1013.4
20260506233036 23 212 11.3 17.7 0.00 0.00 0.00 53 1013.4
20260506231533 23 228 6.4 16.1 0.00 0.00 0.00 54 1013.4
20260506230033 23 261 6.4 22.5 0.00 0.00 0.00 54 1013.4
20260506224532 23 291 11.3 19.3 0.00 0.00 0.00 54 1013.6
20260506223031 23 207 11.3 20.9 0.00 0.00 0.00 54 1013.6
20260506221529 23 236 11.3 24.1 0.00 0.00 0.00 53 1013.8
20260506220034 23 242 14.5 24.1 0.00 0.00 0.00 52 1013.9
20260506214528 23 201 12.9 30.6 0.00 0.00 0.00 51 1013.9
20260506213026 23 257 9.7 22.5 0.00 0.00 0.00 51 1014.1
20260506211526 23 240 11.3 24.1 0.00 0.00 0.00 51 1014.3
20260506210025 23 264 9.7 20.9 0.00 0.00 0.00 51 1014.2
20260506204524 23 226 9.7 27.4 0.00 0.00 0.00 51 1014.3
20260506203027 24 257 9.7 24.1 0.00 0.00 0.00 49 1014.4
20260506201521 25 240 6.4 16.1 0.00 0.00 0.00 45 1014.5
20260506200018 24 198 4.8 16.1 0.00 0.00 0.00 43 1014.7
20260506194516 24 215 4.8 17.7 0.00 0.00 0.00 43 1015.0
20260506193013 23 252 3.2 16.1 0.00 0.00 0.00 45 1015.0
20260506191509 23 201 1.6 16.1 0.00 0.00 0.00 46 1015.3
20260506190007 22 221 3.2 16.1 0.00 0.00 0.00 47 1015.4
20260506184503 22 192 6.4 14.5 0.00 0.00 0.00 48 1015.5
20260506183109 22 194 3.2 12.9 0.00 0.00 0.00 50 1015.7
20260506181600 21 180 1.6 11.3 0.00 0.00 0.00 50 1015.9
20260506180054 21 159 1.6 9.7 0.00 0.00 0.00 53 1016.2
20260506174550 20 177 1.6 9.7 0.00 0.00 0.00 55 1016.3
20260506173048 20 140 1.6 4.8 0.00 0.00 0.00 55 1016.4
20260506171552 19 245 0.0 6.4 0.00 0.00 0.00 56 1016.6
20260506170040 18 172 0.0 3.2 0.00 0.00 0.00 60 1016.7
20260506164535 17 208 0.0 3.2 0.00 0.03 0.00 62 1016.8
20260506163038 16 236 0.0 8.0 0.00 0.03 0.00 68 1016.9
20260506161525 15 180 1.6 4.8 0.00 0.03 0.00 70 1016.9
20260506160021 15 180 0.0 0.0 0.00 0.03 0.00 74 1016.9
20260506154516 13 180 0.0 0.0 0.00 0.03 0.00 76 1017.0
20260506153012 13 180 0.0 0.0 0.00 0.03 0.00 80 1017.0
20260506151512 12 180 0.0 0.0 0.00 0.03 0.00 84 1017.1
20260506150006 11 180 0.0 0.0 0.00 0.03 0.00 88 1017.2
20260506144605 10 180 0.0 0.0 0.00 0.03 0.00 91 1017.2